Location: Newark
(17.9939°S, 31.0481°E)
Time: 04:38:02
(UTC+00:00)

Courier 1B - Pass Details

Date: 16 November 2019
Orbit: 963 x 1209 km, 28.3° (Epoch: 12 December)

Event Time Altitude Azimuth Distance (km) Brightness Sun altitude
Rises 20:29:21 0° 246° (WSW) 4,108 11.2 -49.2°
Reaches altitude 10° 20:32:19 10° 240° (WSW) 3,152 10.5 -49.5°
Enters shadow 20:34:11 18° 235° (SW) 2,585 10.0 -49.7°
